Theta_e
326 326 330 336 334 339 345 345 343 342 343 345 346 353 351 348 352 353 353 350 345 333 333 333 329 326 324 332 338 341 341 340 339 336 328 325 326 328 329 331 331 332 333 331 330 330 330 329 326
327 332 332 335 333 336 342 341 344 341 343 345 345 353 352 351 344 347 354 349 338 331 333 330 328 327 324 324 330 335 336 338 338 335 330 329 327 327 329 331 331 331 328 328 327 327 326 326 326
329 335 334 327 331 335 336 340 340 341 342 342 345 355 355 350 348 350 352 344 328 333 332 329 329 327 325 324 324 326 329 332 334 332 330 330 329 328 326 328 329 330 329 328 328 327 327 326 325
328 332 334 329 330 331 337 339 339 341 345 345 349 347 349 346 346 349 350 347 327 334 331 329 331 329 327 325 324 325 326 328 329 327 327 327 327 327 326 325 326 328 330 329 328 327 325 325 326
327 329 328 329 330 332 334 337 343 341 343 346 349 348 341 345 345 349 347 343 336 336 333 332 333 331 329 326 325 324 324 324 325 326 326 326 324 324 324 325 324 325 329 328 327 325 329 329 328
325 329 325 327 328 333 334 337 341 340 342 340 346 343 341 343 343 345 345 347 349 337 332 333 334 333 332 331 328 326 325 324 325 326 326 325 323 322 322 323 324 325 327 326 326 330 328 326 326
322 321 324 324 327 328 335 335 342 343 340 343 343 342 336 336 343 342 349 350 347 331 327 332 334 335 334 334 333 331 328 327 326 326 326 325 325 324 324 324 324 324 325 328 328 327 327 327 325
322 319 320 323 325 328 334 338 344 341 341 346 346 341 338 338 343 343 347 349 349 347 336 335 333 334 334 333 332 332 332 330 328 327 327 326 326 334 335 327 329 328 326 326 325 324 325 326 325
321 315 317 321 324 331 335 337 345 344 341 345 335 336 338 344 341 342 344 345 347 348 348 348 348 349 349 344 338 331 331 331 330 329 328 328 328 345 346 342 339 341 339 330 326 324 324 325 325
318 314 317 321 324 326 333 333 341 342 344 342 340 338 338 342 341 341 342 342 345 347 345 345 346 350 349 349 340 336 342 335 335 342 342 341 346 346 345 339 342 343 342 338 341 328 332 340 331
320 316 319 322 325 327 330 331 332 337 341 345 339 337 340 344 342 342 341 341 337 341 333 332 341 339 337 338 344 341 340 337 336 340 342 347 346 347 346 346 345 345 344 343 343 344 343 341 341
318 321 321 323 326 325 330 331 330 335 338 344 344 342 341 336 335 337 341 340 334 335 335 333 333 331 332 336 339 342 342 341 339 342 336 340 344 346 347 346 344 346 346 344 345 343 344 341 335
319 319 324 325 325 325 331 330 329 338 340 342 338 333 332 331 330 330 337 337 337 333 332 332 332 331 332 333 343 342 344 343 343 335 334 343 346 344 343 343 342 342 343 340 341 337 335 340 340
324 323 324 325 325 325 325 328 329 344 339 337 337 337 336 333 334 333 333 333 334 334 334 335 333 336 335 337 342 338 343 342 336 335 336 336 331 341 339 336 343 345 344 339 339 337 338 337 336
325 322 322 323 324 326 326 327 330 341 340 340 340 340 342 341 337 336 336 336 336 335 337 336 333 336 340 341 336 336 338 336 329 330 330 332 328 332 332 329 339 344 340 342 341 335 340 340 335
324 322 320 319 322 324 325 326 329 340 338 337 336 334 333 332 336 338 339 339 339 342 334 336 345 344 345 343 339 340 331 328 328 330 329 332 334 329 329 332 335 341 342 341 337 333 340 343 338
322 319 319 320 322 323 323 329 339 338 336 334 332 332 330 329 328 329 334 336 337 338 340 344 347 348 345 341 332 331 330 332 328 333 338 337 336 338 339 339 339 339 338 338 335 340 339 336 335
323 322 324 322 322 323 330 339 338 337 334 332 331 330 328 326 325 324 326 330 332 334 335 335 338 338 339 337 340 338 334 333 334 335 338 336 336 334 334 335 337 338 339 338 339 340 339 339 336
323 323 324 326 324 327 338 338 338 337 334 331 330 329 326 324 323 322 320 320 323 325 325 325 327 328 333 339 339 338 336 336 335 335 335 332 328 329 329 331 335 336 335 338 339 338 336 335 334
321 321 321 323 325 324 337 338 336 335 334 331 329 327 325 323 321 320 319 318 318 318 318 318 318 318 320 323 329 330 330 329 324 328 327 324 321 320 323 327 327 328 331 332 334 336 335 334 333
321 321 321 322 324 325 330 339 338 334 329 327 326 325 324 322 320 320 319 318 318 318 316 315 314 313 314 314 315 316 317 316 316 315 315 314 314 316 320 321 323 324 327 329 331 331 331 332 332
323 325 325 325 322 320 323 322 337 334 330 327 325 322 321 320 320 319 319 318 317 316 316 315 313 312 311 311 311 311 311 311 310 310 310 310 311 312 314 317 317 317 318 322 326 327 327 327 329
324 323 323 324 322 321 322 320 339 333 332 328 324 322 321 320 320 319 319 317 317 316 316 315 313 312 311 311 311 310 310 310 309 309 309 309 310 310 311 311 312 313 313 314 315 317 320 320 321
322 322 322 321 320 320 320 322 337 335 332 328 324 322 321 320 320 319 318 317 316 315 315 314 313 311 311 310 310 309 309 308 308 308 308 308 307 307 307 307 307 307 308 309 310 311 312 313 314
322 322 321 323 322 322 324 331 335 334 330 327 324 322 322 321 319 318 317 315 315 314 314 313 312 310 310 309 309 308 308 307 306 305 304 304 304 304 305 305 306 306 307 307 307 308 308 310 311
319 323 322 323 323 323 327 337 332 330 329 328 323 322 321 320 319 318 316 315 314 313 312 312 310 309 309 308 307 306 305 304 304 303 303 303 304 304 305 305 306 306 308 309 309 310 309 309 310
319 317 321 321 321 320 328 330 328 326 324 323 322 321 320 320 318 316 315 315 313 312 311 310 309 308 307 306 305 304 303 303 303 303 303 304 304 305 306 306 307 307 308 309 309 309 309 309 310
319 318 318 317 321 324 328 332 331 326 324 322 322 322 321 320 317 317 314 313 312 311 310 309 307 306 305 304 304 304 304 304 303 303 303 304 305 305 305 305 306 306 308 309 310 311 311 312 311
322 321 319 320 323 326 327 326 326 325 323 322 322 323 320 319 317 315 313 312 311 310 309 307 305 305 305 304 304 304 304 304 303 304 304 304 304 304 306 306 306 306 308 309 307 307 309 310 311
322 322 319 320 325 324 324 327 325 325 324 324 323 321 318 317 316 314 313 312 311 310 307 305 304 304 304 304 303 303 304 304 303 303 304 304 305 306 306 305 305 305 308 309 308 305 309 310 310
Wind_Speed
19 19 12 7 2 4 2 6 8 7 6 4 11 17 8 6 2 5 19 22 21 21 19 16 14 12 13 15 14 12 11 11 11 10 10 10 10 10 10 9 8 7 6 5 5 4 4 3 3
21 16 6 6 2 2 5 6 13 18 19 9 5 24 18 6 12 23 22 18 19 22 19 16 14 13 12 14 13 12 10 10 9 9 9 9 8 8 7 6 5 5 4 4 4 4 3 2 2
19 17 4 4 3 5 5 11 8 9 16 20 5 28 19 10 15 10 21 17 15 21 18 16 15 13 13 12 12 11 10 10 8 8 8 7 7 7 7 7 6 5 4 4 3 1 0 1 1
13 6 6 1 9 18 3 7 9 4 4 12 11 11 37 44 39 22 13 7 17 19 17 16 14 12 11 11 10 9 9 9 8 7 7 6 6 6 7 8 7 6 4 3 3 3 3 3 2
15 8 3 5 14 11 5 8 17 6 1 30 24 17 13 33 40 16 13 8 16 14 14 15 13 12 11 10 9 8 7 7 6 5 4 4 5 5 6 7 7 6 6 5 6 6 5 4 4
8 7 5 7 12 8 6 14 17 6 24 24 25 20 19 17 35 13 10 12 9 8 13 13 12 11 10 10 8 7 7 6 5 4 3 3 3 3 4 5 6 6 6 7 6 6 5 5 5
9 3 8 11 19 9 5 1 9 17 21 15 15 8 13 24 17 21 23 18 14 14 9 10 10 9 8 8 7 6 6 5 4 3 3 3 3 3 3 4 4 5 6 7 7 7 7 6 7
19 1 10 14 11 12 10 22 26 18 8 21 13 7 8 9 14 21 26 24 18 18 16 19 13 8 8 8 7 5 4 3 1 1 2 3 3 3 0 2 2 4 5 7 8 8 8 7 7
19 3 7 17 14 2 18 11 25 21 22 10 13 9 24 21 21 32 35 33 26 22 19 11 8 8 9 14 15 8 6 4 3 3 3 1 5 2 1 1 3 4 6 5 6 6 5 6 7
8 2 11 18 13 7 4 10 17 11 19 16 17 26 37 20 16 24 34 35 29 23 20 17 16 10 2 13 11 5 8 7 4 4 5 4 2 4 4 0 2 5 4 2 5 3 4 6 7
21 8 15 25 25 20 8 14 17 10 11 28 34 28 23 18 12 15 20 14 18 6 16 10 7 8 8 10 12 9 7 16 10 11 8 5 5 8 10 10 9 7 4 4 1 3 6 9 10
7 24 25 30 27 15 4 11 16 14 15 38 41 28 17 14 12 7 12 17 7 16 10 6 8 18 6 9 9 10 5 9 19 28 24 20 10 10 10 11 7 4 2 4 2 5 7 9 8
7 14 21 18 16 21 5 6 11 41 48 38 33 35 28 26 17 10 6 13 18 14 17 13 12 13 9 10 9 14 13 15 11 13 9 28 22 9 8 10 7 9 8 7 6 10 11 13 10
12 10 5 9 17 13 6 1 10 36 44 40 40 33 27 23 18 16 12 12 13 13 15 13 9 9 8 13 17 18 15 14 24 28 25 20 24 13 6 10 10 6 13 12 11 11 10 9 9
13 6 7 9 15 1 4 5 14 38 44 38 37 31 21 18 15 16 10 11 13 11 12 12 14 10 14 16 22 20 16 20 24 17 15 10 30 29 15 9 15 13 13 13 12 12 9 10 12
3 5 5 11 10 5 10 4 13 36 43 34 32 29 27 21 15 10 7 7 7 16 20 15 12 12 12 14 15 12 17 20 17 15 17 7 6 5 7 15 14 16 14 13 15 14 11 12 14
5 8 9 11 16 6 9 8 25 34 37 29 28 27 24 21 19 13 8 4 3 5 11 12 12 14 12 9 2 3 6 13 14 8 12 10 3 5 7 11 11 12 12 12 8 8 10 10 12
5 6 7 8 6 7 12 10 10 28 34 27 27 26 26 23 18 16 14 8 6 4 4 6 3 3 4 2 3 4 6 8 8 9 6 8 5 7 9 12 14 13 11 8 9 9 11 14 16
6 7 9 5 9 10 13 9 8 25 30 28 27 25 24 21 17 17 15 15 15 15 15 15 11 11 7 8 4 7 8 6 4 2 4 6 10 11 9 12 14 12 12 14 13 14 17 18 16
8 7 9 4 7 7 11 8 9 17 18 28 28 24 21 17 13 14 14 15 17 17 15 15 16 15 13 11 8 7 3 6 5 7 11 11 12 11 12 14 16 16 15 16 16 17 19 19 15
5 5 7 6 3 1 10 4 12 13 27 28 27 25 21 17 16 17 17 18 16 17 17 16 16 15 14 12 8 5 4 7 11 13 16 19 18 13 14 18 16 16 17 16 17 19 20 20 21
2 8 9 6 5 2 5 4 6 11 13 18 23 23 18 13 11 13 14 14 15 16 16 17 17 18 19 18 17 17 17 19 20 21 22 22 20 18 20 20 22 21 19 20 21 21 20 23 23
5 9 7 6 8 6 10 5 2 8 9 12 18 19 17 18 13 12 11 11 11 12 16 17 19 19 20 20 20 20 20 20 21 24 25 25 24 23 25 25 26 28 27 24 24 25 25 23 25
6 4 6 5 2 3 10 4 5 5 8 8 20 22 20 15 13 12 12 5 7 9 11 17 20 20 21 23 23 24 24 25 25 27 29 30 29 27 27 27 27 28 30 29 27 26 26 25 25
5 4 3 4 3 6 6 7 1 10 11 17 18 22 16 11 9 8 7 10 10 9 12 16 19 21 22 24 26 27 28 29 27 26 26 25 26 25 24 22 22 21 21 19 18 20 22 23 20
6 2 3 3 3 4 6 3 2 4 20 16 25 20 14 9 7 7 4 6 7 11 14 17 20 19 21 24 26 27 26 25 24 23 22 21 21 23 24 22 21 19 22 19 20 18 16 16 17
6 4 3 2 5 5 5 3 3 6 10 20 18 14 9 5 5 5 10 7 6 8 13 17 18 19 22 25 23 22 23 23 21 20 19 19 19 19 20 19 20 18 21 21 17 14 14 15 15
8 5 5 4 2 3 2 3 6 7 7 7 10 9 9 10 9 6 12 9 7 6 9 16 18 16 20 19 19 18 18 19 20 18 17 16 17 18 17 17 19 18 15 17 18 17 16 16 17
5 4 4 3 2 1 2 2 6 13 11 11 19 18 13 11 9 16 12 8 5 8 15 18 17 17 18 19 18 13 14 16 17 16 17 18 16 15 16 15 15 13 14 14 16 15 14 13 14
4 4 1 5 5 1 3 3 4 13 18 18 19 19 15 11 8 10 9 6 7 14 20 17 15 16 19 18 17 14 14 16 16 13 14 15 15 13 14 14 12 11 11 13 16 14 15 15 14
Wind_Direction
328 331 333 309 44 97 229 221 130 192 248 345 42 91 104 106 181 148 150 148 134 137 141 137 129 127 129 135 137 138 132 129 125 123 129 138 145 146 147 140 128 124 125 125 125 119 110 105 117
330 335 304 265 136 179 251 232 193 214 222 269 101 89 73 27 77 113 127 127 132 136 135 131 128 125 125 129 134 136 135 133 130 127 132 141 150 157 163 162 153 143 129 121 117 110 102 98 126
335 323 291 188 177 233 216 227 242 225 243 293 72 71 51 61 80 96 132 121 133 133 131 127 125 122 120 122 128 133 136 137 136 136 139 147 155 168 181 192 195 185 172 163 163 175 284 287 253
323 321 255 166 271 287 202 226 241 42 302 51 38 41 11 13 359 122 119 112 134 127 126 123 120 116 113 114 119 125 132 137 140 142 146 152 167 179 192 202 210 215 213 229 249 259 271 271 260
319 252 288 299 286 260 265 156 102 124 194 52 63 55 58 338 1 81 65 75 98 108 119 119 118 114 107 103 105 109 116 122 127 133 143 157 169 184 195 204 213 224 242 257 275 284 288 290 290
303 308 335 299 300 311 343 70 101 104 50 47 74 80 58 1 12 36 110 115 88 91 119 117 113 110 106 102 99 101 105 111 117 123 132 153 173 191 207 216 225 235 254 269 275 284 296 306 310
264 320 274 295 295 299 284 206 118 77 74 50 121 95 124 107 14 37 113 103 70 77 98 97 96 95 89 86 86 90 98 105 116 142 158 172 186 189 211 229 246 261 270 279 285 293 300 308 316
280 54 298 282 297 319 8 39 105 94 86 99 118 134 184 145 81 110 119 109 100 83 78 58 55 62 68 59 49 45 56 66 98 185 195 193 177 116 148 231 320 311 304 298 300 303 308 317 319
276 338 274 273 285 325 35 74 77 98 113 95 110 136 136 146 120 111 104 97 104 93 82 60 44 48 52 50 21 15 6 349 314 280 263 255 194 160 73 93 1 12 13 3 338 324 318 310 314
231 209 255 264 280 323 23 15 117 118 100 88 116 132 137 126 137 116 105 89 88 95 73 59 71 108 52 18 25 56 30 340 309 319 326 215 218 247 263 238 348 316 356 57 29 5 330 317 275
243 223 255 272 282 306 5 15 15 126 122 149 138 146 156 156 131 104 113 118 75 170 96 34 47 46 18 344 334 325 288 322 329 338 296 256 270 286 295 301 316 311 293 288 10 297 294 307 285
213 243 244 263 280 322 2 19 353 50 57 140 114 123 146 111 98 119 171 170 206 182 202 205 279 300 252 321 296 298 298 230 272 292 285 270 259 256 244 266 271 249 327 275 308 309 315 281 305
232 248 257 264 293 310 93 58 69 83 102 119 115 118 102 93 85 86 160 186 191 252 246 266 307 316 265 282 260 257 265 272 329 8 277 257 238 248 256 276 305 299 285 295 301 310 296 285 288
264 294 282 330 303 300 26 102 88 99 104 94 98 98 107 110 104 112 125 166 200 216 235 263 253 280 267 260 261 271 276 307 334 325 342 292 311 14 6 317 318 295 286 293 289 317 309 307 302
297 355 343 296 281 203 267 51 66 107 97 94 88 86 90 96 105 101 119 166 191 191 214 200 259 243 251 252 265 277 295 303 325 352 316 265 344 13 26 351 322 297 290 283 293 313 301 306 316
328 321 260 257 238 149 101 66 93 103 98 98 96 92 86 75 79 90 105 132 143 196 200 220 224 227 233 247 264 276 329 338 348 41 65 64 5 334 298 276 267 262 271 284 297 300 289 283 299
273 236 231 271 171 148 119 111 82 101 99 99 99 98 90 81 70 57 60 67 91 144 187 196 186 201 217 236 54 66 18 21 28 48 35 48 19 285 270 286 282 289 297 324 293 306 297 283 305
277 254 316 137 184 136 91 85 82 112 105 102 94 94 91 85 70 60 54 64 59 84 107 115 156 193 180 170 121 57 28 21 26 38 10 337 327 304 300 301 291 295 298 304 285 289 285 292 301
16 351 335 86 141 106 120 117 100 123 114 111 101 95 91 84 80 68 52 62 72 71 66 71 80 67 86 143 137 96 57 34 46 338 275 338 2 358 328 305 306 309 300 301 299 291 287 280 293
3 332 308 337 138 122 139 136 103 78 97 113 113 112 109 101 82 70 52 49 57 56 59 61 57 60 61 57 48 47 35 5 10 338 330 331 331 330 324 313 314 313 303 295 293 293 291 285 282
280 253 283 274 340 248 107 107 111 97 97 97 99 106 103 101 91 67 55 42 42 44 36 40 41 36 35 31 26 19 311 305 312 321 319 325 325 320 306 303 300 295 289 290 295 293 291 302 290
270 354 11 356 33 239 139 242 115 127 112 113 124 114 117 109 96 83 68 55 36 27 20 18 24 22 16 7 1 353 347 343 340 326 320 314 311 311 297 292 298 301 302 295 292 291 294 296 301
111 28 356 339 335 35 314 79 218 139 133 135 124 118 119 115 98 91 75 71 47 17 0 2 5 8 5 358 353 348 342 335 325 316 313 311 310 308 303 300 298 298 299 295 294 295 297 297 298
19 5 339 326 290 318 255 245 216 180 180 163 126 134 122 111 107 103 79 61 40 22 1 352 356 1 354 349 348 346 345 342 336 330 329 328 327 322 315 315 313 309 309 306 301 295 296 301 294
19 12 322 334 349 226 251 109 233 220 135 130 133 124 121 121 119 101 113 56 55 24 359 348 351 354 345 340 339 340 338 339 341 345 347 349 354 358 358 1 2 359 356 347 339 327 302 297 302
338 151 170 257 272 263 12 54 343 40 129 140 125 119 120 112 130 124 98 82 57 24 360 348 352 351 342 341 341 341 348 354 355 0 7 11 12 13 15 8 10 13 1 355 353 344 338 324 319
299 328 242 13 320 21 120 138 29 73 72 92 102 106 119 152 160 139 126 107 71 16 0 354 352 345 336 337 347 2 9 11 10 6 5 3 5 9 5 8 6 6 359 7 0 4 358 348 334
158 248 15 355 349 306 164 159 177 158 148 138 124 140 184 194 182 158 119 96 74 38 351 340 347 349 350 8 3 3 6 8 11 9 10 11 6 7 4 10 6 8 7 16 23 25 23 37 35
4 356 358 107 104 186 351 278 184 164 173 165 174 183 193 204 143 118 108 90 49 353 346 345 353 1 1 354 345 358 8 2 357 7 5 6 6 2 3 359 358 5 8 13 21 22 20 26 20
47 314 49 109 324 23 142 307 55 142 172 170 171 153 123 95 105 101 98 67 14 350 345 0 14 2 346 353 6 26 8 7 358 358 6 10 12 4 350 346 339 342 3 8 8 6 15 20 18